Location: Newark
(46.1292°N, 1.0086°W)
Time: 15:33:56
(UTC+00:00)

Envisat - Visible Passes

Search period start: 19 October 2019 00:00
Search period end: 29 October 2019 00:00
Orbit: 764 x 766 km, 98.1° (Epoch: 19 October)

Date Brightness Start Highest point End Pass type
(mag) Time Alt. Az. Time Alt. Az. Time Alt. Az.
19 Oct 3.1 18:08:33 10° SSE 18:13:37 81° WSW 18:18:45 10° NNW visible
19 Oct 6.3 19:52:27 10° W 19:53:27 10° W 19:54:27 10° WNW visible
20 Oct 5.4 19:12:13 10° SW 19:16:13 23° W 19:20:14 10° NW visible
21 Oct 6.3 05:39:56 10° ENE 05:42:30 14° E 05:45:04 10° ESE visible
21 Oct 4.1 18:34:18 10° S 18:39:12 48° W 18:44:08 10° NNW visible
22 Oct 3.0 17:57:17 10° SSE 18:02:22 82° ENE 18:07:29 10° NNW visible
22 Oct 6.1 19:39:32 10° WSW 19:42:01 14° W 19:44:31 10° WNW visible
23 Oct 5.0 19:00:30 10° SSW 19:04:51 28° W 19:09:15 10° NW visible
24 Oct 6.7 05:29:52 10° ENE 05:31:04 11° E 05:32:16 10° E visible
24 Oct 3.6 18:22:53 10° S 18:27:53 60° W 18:32:56 10° NNW visible
25 Oct 3.0 17:46:06 10° SSE 17:51:07 66° ENE 17:56:10 10° N visible
25 Oct 5.8 19:27:21 10° SW 19:30:37 17° W 19:33:54 10° NW visible
26 Oct 6.0 05:53:21 10° NE 05:56:56 19° E 06:00:29 10° SE visible
26 Oct 4.6 18:48:53 10° SSW 18:53:30 35° W 18:58:11 10° NNW visible
27 Oct 3.2 18:11:31 10° S 18:16:35 75° WSW 18:21:42 10° NNW visible
28 Oct 3.1 17:34:58 10° SE 17:39:53 53° ENE 17:44:50 10° N visible
28 Oct 5.5 19:15:24 10° SW 19:19:14 21° W 19:23:04 10° NW visible
